Regional Weather Roundup
Issued by NWS Cleveland, OH

Home | Current Version | Previous Version | Graphics & Text | Print | Product List | Glossary On
Versions: 1 2 3 4 5 6 7 8 9 10 11 12 13 14 15 16 17 18 19 20 21 22 23 24 25 26 27 28 29 30 31 32 33 34 35 36 37 38 39 40 41 42 43 44 45 46 47 48 49 50
000
ASUS41 KCLE 301010
RWRCLE
OHIO REGIONAL WEATHER ROUNDUP
NATIONAL WEATHER SERVICE WILMINGTON, OH
600 AM EDT SAT MAY 30 2015

NOTE: "FAIR" INDICATES FEW OR NO CLOUDS BELOW 12,000 FEET WITH NO
SIGNIFICANT WEATHER AND/OR OBSTRUCTIONS TO VISIBILITY.

OHZ001>008-015>018-024>027-034-035-043-044-301100-
   NORTHWEST OHIO

CITY           SKY/WX    TMP DP  RH WIND       PRES   REMARKS
DEFIANCE       CLEAR     68  64  87 S5        30.00R
FINDLAY        CLEAR     69  66  90 S9        30.01S
TOLEDO EXPRESS PTCLDY    67  64  90 S7        29.99S
TOLEDO EXEC    CLEAR     70  64  81 S9        30.01R
LIMA           CLEAR     69  65  86 S9        30.03S
$$

OHZ009>014-019>023-028>033-038-089-301100-
   NORTHEAST OHIO

CITY           SKY/WX    TMP DP  RH WIND       PRES   REMARKS
CLE-HOPKINS    PTCLDY    71  64  78 S12       30.06R
CLE-LAKEFRONT  PTCLDY    74  64  71 S12       30.03R
CUY CO. ARPT   NOT AVBL
LORAIN-ELYRIA  PTCLDY    70  64  81 SW9       30.04R
ASHTABULA      MOCLDY    71  64  78 S10       30.06R
AKRON-CANTON   MOCLDY    70  63  78 S8        30.08R
WOOSTER        MOCLDY    68  65  90 S7        30.08R
MANSFIELD      PTCLDY    68  65  90 S8        30.07R
YOUNGSTOWN     CLOUDY    69  63  81 S7        30.08R
$$

OHZ042-051>053-060>062-070>072-077>081-301100-
  SOUTHWEST OHIO

CITY           SKY/WX    TMP DP  RH WIND       PRES   REMARKS
CINC-COVINGTON MOCLDY    68  65  90 S7        30.07R
CINC-LUNKEN    CLOUDY    67  66  97 CALM      30.07R
HAMILTON       PTCLDY    69  66  90 CALM      30.06S
DAYTON         PTCLDY    70  66  87 S9        30.06R
WRIGHT-PAT AFB CLEAR     68  66  94 S6        30.05S
DAYTON GENERAL PTCLDY    68  66  93 S6        30.05S
WILMINGTON     PTCLDY    67  63  87 S7        30.07S
$$

OHZ036-037-039>041-045>050-054>059-063>069-073>076-082>088-301100-
  CENTRAL AND SOUTHEAST OHIO

CITY           SKY/WX    TMP DP  RH WIND       PRES   REMARKS
COLUMBUS       MOCLDY    71  65  81 S8        30.06R
OSU AIRPORT    PTCLDY    71  64  78 SW10      30.06R
BOLTON FIELD   NOT AVBL
RICKENBACK AFB MOCLDY    69  65  89 S6        30.07R
NEWARK         MOCLDY    70  65  84 SW3       30.07R
MARION         CLEAR     69  64  84 S9        30.06R
LANCASTER      MOCLDY    71  65  81 S6        30.08R
ZANESVILLE     MOCLDY    68  63  84 S7        30.09S
NEW PHILLY     MOCLDY    71  65  81 VRB3      30.09R
$$


USA.gov is the U.S. government's official web portal to all federal, state and local government web resources and services.